Wind_Speed
16 16 16 16 16 15 15 15 13 12 12 11 11 11 11 12 12 12 12 13 15 16 17 18 19 20 20 21 22 23 23 24 25 26 28 30 30 31 33 34 33 27
18 17 17 17 17 17 16 15 12 11 12 12 11 11 11 11 11 12 13 14 15 16 18 19 19 21 21 22 23 24 25 26 27 28 30 32 31 31 32 33 32 28
19 18 18 18 17 17 16 14 12 11 11 11 11 11 10 10 10 12 14 15 15 16 18 20 21 22 22 23 24 25 26 27 29 30 32 33 33 31 31 31 31 30
18 18 17 16 16 15 13 12 11 11 10 10 11 11 10 10 11 12 14 15 15 16 18 20 21 22 23 24 25 26 27 28 30 31 32 34 34 32 31 32 31 31
15 15 14 13 13 11 10 9 10 9 9 9 9 10 11 12 12 12 12 14 15 17 19 21 22 23 24 25 26 27 28 30 31 31 32 33 35 34 33 33 33 31
13 12 11 10 9 8 8 8 8 8 8 8 8 10 12 13 12 12 12 14 16 17 19 21 23 24 25 26 27 28 29 31 32 32 32 33 35 36 34 33 34 33
12 11 9 9 8 8 8 7 7 8 7 7 8 10 11 12 12 13 14 16 17 19 20 21 23 24 25 26 27 28 30 31 33 33 34 34 35 36 35 33 34 32
11 10 10 9 8 8 8 7 7 8 7 7 8 9 9 11 12 14 15 17 18 20 22 23 24 25 25 26 27 29 30 32 34 34 34 34 34 34 33 32 33 32
11 11 11 10 9 9 8 7 7 7 7 8 8 8 9 11 13 14 15 17 19 22 23 25 26 27 27 29 30 31 32 33 34 34 34 34 33 33 32 32 32 31
11 12 11 11 10 9 9 8 8 8 8 8 7 8 9 11 13 15 17 19 21 23 25 26 28 30 31 32 33 34 35 35 36 37 36 36 34 33 33 32 32 32
10 11 11 11 11 11 10 9 9 9 8 8 7 8 9 12 15 17 18 20 22 24 26 27 29 30 32 33 34 36 36 37 38 38 38 38 37 36 35 33 32 32
11 11 12 12 12 12 11 10 9 9 9 9 8 9 11 12 14 16 17 20 22 24 26 27 29 31 32 34 35 36 38 38 38 38 39 38 38 38 37 35 32 30
12 13 14 13 13 13 12 10 9 9 9 10 11 11 10 11 12 14 16 19 22 25 26 28 32 34 36 37 37 38 40 41 41 41 40 38 36 36 36 36 33 30
13 14 14 14 13 13 11 10 9 10 10 11 12 11 10 10 12 15 17 20 23 26 27 30 33 36 38 41 41 42 43 44 44 43 41 37 35 34 35 35 34 31
14 15 15 14 13 12 11 11 11 11 11 10 10 11 12 14 15 17 20 22 24 26 28 30 33 36 38 41 43 45 46 46 46 45 41 35 33 33 34 34 34 33
15 16 15 14 13 13 13 13 13 13 11 10 10 13 15 17 18 19 21 24 25 27 29 31 33 36 38 41 43 45 47 47 46 45 41 34 32 33 33 33 34 34
16 17 17 15 14 15 15 15 14 13 11 11 12 15 17 18 19 21 23 24 26 27 29 32 34 36 39 41 43 45 46 47 46 45 41 35 32 33 33 33 34 34
17 18 18 17 16 17 17 16 15 13 13 14 15 16 18 19 21 23 24 26 27 29 30 32 34 37 40 42 44 45 46 47 46 43 38 34 33 33 33 33 34 35
18 19 20 19 18 18 18 17 16 15 15 16 17 18 20 21 23 25 26 28 29 31 32 34 35 38 41 43 44 46 47 47 45 40 35 33 33 34 34 33 34 36
19 19 21 21 21 20 19 19 19 19 19 19 20 21 22 24 26 28 29 30 32 33 34 36 37 39 42 44 45 47 47 45 42 36 32 32 33 35 36 35 36 36
20 20 21 22 23 22 22 22 22 23 23 23 24 24 25 26 29 30 32 33 34 35 36 37 39 41 44 46 47 47 46 43 39 34 31 31 33 35 38 39 38 38
20 20 21 22 23 23 23 23 23 24 25 25 26 27 28 30 31 33 34 36 37 37 37 39 40 43 45 46 47 47 45 42 39 35 32 32 33 36 39 40 40 39
21 20 21 21 21 22 22 22 23 24 25 26 27 29 31 33 34 35 37 38 39 39 39 40 42 44 46 47 47 46 45 42 40 38 36 35 35 37 38 39 39 39
24 23 22 22 21 20 20 22 24 25 26 27 28 31 34 35 36 37 39 40 41 41 41 41 43 46 47 47 47 46 45 43 42 40 39 37 37 37 37 37 37 37
26 25 24 22 21 21 22 25 26 27 28 29 31 34 36 38 39 39 40 41 42 43 42 43 45 47 48 47 47 47 46 45 43 41 38 37 37 37 36 37 37 37
28 26 25 23 23 25 27 28 29 29 30 33 35 38 40 42 43 42 41 42 44 45 43 44 47 48 48 47 47 48 47 46 44 41 37 36 36 36 37 38 38 38
Wind_Direction
255 257 258 259 261 265 272 282 288 287 284 282 280 281 287 293 294 296 302 307 312 315 318 320 321 323 326 329 331 334 335 333 331 328 324 324 329 332 332 332 333 322
256 256 257 259 262 265 272 280 281 277 277 278 277 279 285 288 292 300 307 312 317 319 319 320 322 326 330 333 334 334 334 332 331 329 326 327 332 334 331 330 333 331
256 256 256 259 263 268 273 276 272 268 269 272 276 280 283 286 296 307 312 316 319 319 319 321 324 328 330 331 331 331 331 330 329 328 327 328 332 334 332 329 327 327
256 256 257 261 267 271 271 265 261 261 264 269 276 281 286 294 305 311 314 317 319 319 319 321 323 326 327 328 329 329 328 327 326 326 325 326 329 331 331 328 325 323
254 257 261 264 266 265 257 249 252 258 262 266 273 282 292 303 309 313 315 316 317 317 318 319 320 323 325 326 327 326 325 323 322 322 322 323 324 326 327 326 325 323
253 257 258 256 256 251 242 240 249 256 257 260 272 287 298 305 308 311 313 314 314 314 316 318 318 321 324 325 325 323 321 320 320 320 321 321 321 323 325 325 325 324
248 249 248 248 247 242 237 236 242 248 252 262 277 291 299 303 306 311 313 313 313 314 316 318 319 321 324 324 323 322 320 319 320 321 322 322 321 322 323 323 324 326
243 242 244 248 244 237 234 232 236 245 256 272 285 292 295 298 304 309 311 312 313 315 316 317 319 321 324 324 323 323 324 325 324 323 321 320 321 321 322 322 323 326
241 242 244 246 239 232 233 234 239 251 263 274 283 289 292 297 303 305 306 309 310 313 314 316 318 322 325 325 326 326 328 328 326 322 318 318 320 320 320 320 322 324
241 240 239 238 234 231 234 239 248 256 264 272 277 285 292 299 303 304 305 307 310 312 316 319 322 325 328 330 330 328 327 325 324 323 320 319 319 319 318 317 319 322
236 235 232 231 232 234 237 244 251 256 261 264 268 281 294 300 302 304 306 310 313 317 321 325 327 331 334 334 331 329 329 329 328 326 323 320 318 317 316 316 317 319
234 232 229 229 232 238 243 245 249 254 255 259 267 281 292 297 300 304 309 315 320 323 327 329 331 334 335 333 331 333 334 332 328 324 321 318 316 315 314 314 314 316
235 232 231 232 235 240 245 244 242 245 253 266 277 286 292 296 302 307 313 319 324 327 330 331 332 334 333 331 333 336 334 330 327 324 320 316 313 311 310 310 311 312
240 236 235 238 238 239 242 241 236 240 254 270 280 289 295 301 307 311 315 320 325 328 331 331 332 332 331 331 333 334 331 329 329 327 322 316 311 308 306 307 308 309
247 240 238 239 239 238 238 238 238 243 251 260 273 288 300 305 309 312 315 319 323 327 330 331 331 330 329 329 330 329 327 327 328 327 323 316 309 306 304 304 305 306
251 244 239 237 236 237 237 238 242 246 245 249 269 290 300 304 307 311 315 318 321 325 327 329 330 329 327 327 326 324 324 324 325 327 324 316 308 305 304 303 303 304
252 247 240 232 231 236 239 240 243 246 248 258 277 290 295 299 304 309 313 316 319 321 324 326 327 327 325 324 323 321 321 322 323 325 322 316 310 306 304 303 302 303
251 245 238 229 228 234 241 244 245 250 260 271 281 287 291 296 302 306 309 313 315 317 320 322 324 324 323 321 320 319 319 320 321 322 319 314 309 305 303 303 301 300
248 241 236 231 229 234 241 246 248 256 267 275 280 285 291 296 299 302 306 310 312 315 317 319 321 321 319 318 318 318 318 319 320 319 314 309 307 304 303 302 300 298
244 239 235 232 231 235 242 248 252 259 267 274 280 286 292 296 299 302 305 308 311 313 314 316 318 318 316 317 318 317 317 318 319 316 309 305 304 303 301 299 298 298
242 237 234 234 234 238 245 251 255 260 266 274 281 288 293 297 299 302 304 307 309 310 312 315 316 316 316 317 319 318 317 318 318 313 306 303 303 301 299 299 299 299
237 233 231 233 237 241 247 253 258 263 269 277 284 290 295 297 299 301 304 305 306 307 310 313 314 315 315 317 318 318 317 318 317 311 306 304 303 300 300 301 301 301
232 231 231 234 239 244 250 257 264 269 275 282 288 292 294 296 297 300 302 303 303 305 308 310 311 312 312 314 317 317 317 317 316 312 310 309 306 303 302 302 301 301
231 233 237 241 245 251 257 264 269 274 279 285 289 291 292 293 295 298 299 300 301 303 305 307 308 308 309 312 315 316 316 316 315 314 313 312 310 307 305 302 301 301
233 236 240 245 251 257 262 266 270 275 281 285 287 288 288 289 292 295 296 298 300 301 303 305 305 305 308 311 314 315 315 314 314 315 315 313 311 309 306 303 302 301
236 238 243 248 255 260 262 266 272 277 283 286 287 287 288 290 294 296 296 298 300 300 301 301 301 303 307 311 313 314 313 313 314 315 314 313 311 309 305 304 302 300
Height
5919 5920 5920 5921 5921 5922 5922 5923 5923 5923 5923 5923 5923 5924 5924 5924 5924 5923 5923 5922 5921 5920 5920 5919 5918 5917 5915 5914 5912 5911 5910 5908 5907 5906 5904 5903 5902 5901 5899 5896 5894 5893
5916 5917 5918 5919 5919 5920 5920 5921 5921 5921 5921 5921 5921 5922 5922 5922 5922 5922 5921 5921 5920 5919 5918 5917 5916 5915 5913 5911 5910 5909 5908 5906 5905 5904 5902 5900 5900 5899 5897 5894 5892 5891
5914 5915 5916 5916 5917 5918 5918 5919 5919 5919 5919 5919 5919 5920 5921 5921 5921 5920 5919 5919 5918 5917 5916 5915 5914 5912 5910 5909 5908 5907 5905 5904 5903 5901 5900 5898 5898 5897 5895 5893 5891 5889
5911 5912 5913 5914 5914 5915 5916 5917 5916 5917 5917 5917 5917 5918 5918 5919 5919 5918 5917 5916 5916 5915 5914 5913 5911 5910 5908 5907 5906 5905 5903 5902 5900 5899 5897 5896 5895 5894 5893 5891 5889 5887
5909 5910 5911 5911 5912 5913 5914 5914 5914 5915 5915 5916 5916 5916 5916 5917 5917 5917 5916 5915 5914 5913 5912 5910 5909 5908 5906 5904 5903 5903 5901 5900 5898 5897 5895 5893 5892 5892 5890 5888 5886 5884
5907 5907 5908 5909 5910 5911 5911 5912 5912 5912 5913 5914 5914 5914 5914 5914 5915 5915 5914 5913 5912 5911 5910 5908 5907 5905 5904 5903 5902 5900 5899 5897 5896 5895 5893 5891 5890 5889 5888 5886 5883 5882
5904 5905 5906 5907 5908 5909 5909 5910 5910 5910 5911 5912 5913 5913 5912 5912 5912 5912 5912 5911 5910 5909 5908 5906 5905 5904 5903 5902 5900 5898 5897 5895 5894 5893 5891 5889 5888 5886 5885 5884 5881 5879
5902 5903 5904 5905 5906 5907 5907 5908 5908 5908 5909 5910 5911 5911 5911 5910 5910 5910 5909 5909 5908 5906 5905 5904 5903 5902 5901 5900 5898 5896 5895 5894 5892 5890 5888 5886 5885 5883 5882 5881 5879 5877
5900 5901 5902 5903 5904 5905 5905 5906 5906 5906 5907 5908 5908 5909 5909 5909 5908 5908 5908 5907 5906 5904 5903 5902 5901 5900 5898 5897 5896 5894 5893 5892 5890 5887 5885 5883 5882 5880 5879 5878 5876 5875
5898 5899 5899 5900 5901 5902 5903 5903 5904 5904 5905 5906 5906 5907 5907 5907 5906 5906 5905 5905 5904 5903 5901 5900 5898 5897 5895 5894 5893 5891 5890 5889 5886 5884 5882 5880 5879 5877 5876 5875 5874 5872
5896 5897 5898 5898 5899 5900 5900 5901 5901 5902 5903 5904 5904 5905 5905 5905 5904 5904 5903 5902 5902 5900 5899 5897 5896 5894 5893 5891 5889 5888 5887 5886 5884 5882 5879 5877 5876 5875 5873 5872 5871 5869
5894 5895 5895 5896 5897 5897 5898 5899 5899 5900 5900 5901 5902 5903 5903 5903 5903 5902 5901 5900 5899 5898 5896 5895 5893 5892 5890 5888 5887 5886 5885 5883 5881 5879 5877 5875 5873 5871 5870 5869 5867 5866
5891 5892 5893 5893 5894 5895 5895 5896 5897 5898 5898 5899 5900 5900 5901 5901 5901 5901 5900 5898 5897 5895 5893 5892 5890 5888 5886 5885 5885 5885 5883 5880 5878 5876 5874 5872 5870 5868 5866 5865 5864 5863
5888 5889 5890 5890 5891 5892 5893 5894 5895 5895 5896 5896 5897 5897 5898 5898 5898 5898 5897 5895 5894 5891 5890 5888 5886 5885 5883 5881 5881 5881 5879 5877 5875 5873 5870 5868 5866 5864 5862 5861 5860 5859
5885 5886 5887 5887 5888 5889 5890 5891 5892 5893 5894 5894 5894 5894 5895 5895 5895 5895 5893 5892 5890 5888 5887 5885 5884 5882 5880 5879 5878 5876 5874 5873 5871 5869 5866 5864 5862 5860 5859 5857 5856 5855
5882 5883 5884 5885 5885 5886 5887 5888 5889 5890 5891 5892 5892 5892 5891 5891 5891 5891 5890 5888 5887 5886 5884 5883 5881 5880 5878 5876 5875 5872 5870 5869 5867 5865 5862 5860 5858 5856 5854 5853 5852 5851
5879 5880 5881 5882 5883 5883 5884 5885 5886 5887 5888 5888 5889 5888 5888 5888 5888 5887 5886 5885 5884 5883 5881 5880 5879 5877 5875 5873 5871 5868 5866 5865 5863 5861 5858 5856 5855 5852 5851 5850 5848 5847
5876 5877 5878 5879 5879 5880 5881 5882 5882 5883 5884 5884 5885 5885 5885 5884 5884 5884 5883 5881 5880 5879 5878 5877 5876 5874 5872 5870 5867 5864 5862 5861 5859 5857 5855 5853 5851 5849 5847 5846 5845 5843
5873 5874 5874 5875 5876 5877 5877 5878 5879 5879 5880 5880 5881 5881 5881 5881 5880 5880 5879 5878 5877 5875 5874 5874 5872 5870 5868 5866 5863 5860 5857 5856 5854 5853 5851 5849 5847 5845 5844 5843 5841 5838
5869 5870 5871 5871 5872 5873 5874 5875 5875 5875 5876 5876 5877 5877 5877 5877 5876 5876 5875 5874 5873 5872 5870 5869 5868 5866 5864 5861 5859 5856 5852 5851 5849 5848 5846 5845 5843 5841 5839 5838 5837 5834
5865 5866 5867 5867 5868 5869 5870 5871 5872 5872 5872 5873 5873 5873 5873 5873 5872 5871 5871 5870 5869 5868 5866 5865 5863 5861 5859 5857 5854 5851 5848 5846 5845 5843 5842 5840 5839 5837 5835 5833 5832 5831
5860 5861 5862 5863 5864 5866 5867 5868 5868 5868 5869 5869 5869 5869 5869 5868 5867 5867 5866 5865 5864 5863 5862 5860 5859 5857 5855 5852 5850 5847 5844 5842 5841 5839 5838 5836 5835 5834 5831 5829 5828 5827
5856 5857 5858 5859 5861 5862 5863 5864 5865 5865 5865 5865 5865 5865 5864 5864 5863 5862 5862 5861 5860 5859 5857 5856 5854 5853 5851 5848 5846 5843 5841 5839 5837 5835 5833 5833 5831 5829 5827 5826 5825 5824
5852 5853 5855 5856 5858 5859 5860 5860 5861 5861 5861 5861 5861 5861 5860 5859 5859 5858 5857 5856 5855 5854 5853 5851 5850 5848 5846 5844 5842 5839 5837 5834 5832 5831 5829 5828 5827 5825 5824 5822 5821 5820
5849 5850 5851 5853 5854 5855 5856 5856 5857 5857 5857 5857 5857 5857 5856 5855 5855 5854 5853 5852 5851 5849 5848 5847 5845 5844 5842 5840 5837 5835 5832 5830 5828 5827 5825 5824 5822 5821 5820 5818 5817 5815
5846 5847 5848 5849 5851 5851 5852 5852 5853 5853 5854 5854 5854 5854 5853 5852 5851 5850 5849 5847 5846 5845 5844 5842 5841 5839 5837 5835 5833 5830 5828 5826 5824 5823 5821 5820 5818 5816 5815 5813 5811 5809